Simultaneous Nadir Overpasses (SNOs) Predictions

Prediction of SNOs between GOES-17 and AQUA Satellite Orbit:

Table of predicted SNOs for the next 14.0 days since TLE Epoch: 5/1/2021
Index Date Time (GOES-17) GOES-17 Lat,Lon AQUA Lat,Lon Distance(km) Time Diff (sec)
1 05/01/2021 10:30:33 -0.03,-137.19 -0.64,-134.20 340.01 80
2 05/01/2021 22:54:37 0.02,-137.20 -0.43,-139.40 250.03 80
3 05/03/2021 22:39:45 0.02,-137.19 0.21,-136.44 85.67 80
4 05/05/2021 22:30:13 0.02,-137.18 0.79,-133.47 421.16 80
5 05/06/2021 10:51:27 -0.01,-137.17 0.31,-138.63 165.53 80
6 05/08/2021 10:36:35 -0.01,-137.16 -0.34,-135.67 169.65 80
7 05/08/2021 22:57:59 0.01,-137.16 -0.78,-140.86 420.81 80
8 05/10/2021 22:45:47 0.01,-137.14 -0.13,-137.90 86.25 80
9 05/12/2021 22:36:14 0.01,-137.11 0.47,-134.94 247.66 80
10 05/13/2021 10:57:29 -0.01,-137.11 0.63,-140.09 339.42 80
